Burley, ID

12:42 AM MDT on August 27, 2016 (GMT -0600)
Burley Municipal

Weather History for KBYI - November, 2013

Change the Weather History Date:

Sunday, November 3, 2013

  Actual Average Record
Temperature  
Mean Temperature 32 °F 41 °F  
Max Temperature 40 °F 52 °F 79 °F (1962)
Min Temperature 24 °F 30 °F 5 °F (1991)
Degree Days  
Heating Degree Days 33 24  
Month to date heating degree days 71 71  
Since 1 July heating degree days 820 879  
Cooling Degree Days 0 0  
Month to date cooling degree days 0 0  
Year to date cooling degree days 642 365  
Moisture  
Dew Point 25 °F    
Average Humidity 68    
Maximum Humidity 85    
Minimum Humidity 50    
Precipitation  
Precipitation T in 0.03 in 0.51 in (1968)
Month to date precipitation 0.01 0.08  
Year to date precipitation 4.34 8.15  
Sea Level Pressure  
Sea Level Pressure 29.95 in    
Wind  
Wind Speed 15 mph (WSW)    
Max Wind Speed 25 mph    
Max Gust Speed 36 mph    
Visibility 10 miles    
Events Rain    
T = Trace of Precipitation, MM = Missing Value Source: NWS Daily Summary

Daily Weather History Graph

Daily Weather History Graph

Search for Another Location

Airport or City:

Trip Planner

Search our weather history database for the weather conditions in past years. The results will help you decide how hot, cold, wet, or windy it might be!

Date:

Astronomy

Nov. 03, 2013 Rise Set
Actual Time 7:11 AM MST 5:25 PM MST
Civil Twilight 6:42 AM MST 5:54 PM MST
Nautical Twilight 6:08 AM MST 6:27 PM MST
Astronomical Twilight 5:35 AM MST 7:00 PM MST
Moon 7:20 AM MST (11/3) 5:42 PM MST (11/3)
Length of Visible Light 11h 12m
Length of Day
10h 13m
New Moon, 0% of the Moon is Illuminated
Nov 3
New Moon
Nov 9
First Quarter
Nov 17
Full
Nov 25
Last Quarter
Dec 2
New

Hourly Weather History & Observations

Time (MST) Temp. Windchill Dew Point Humidity Pressure Visibility Wind Dir Wind Speed Gust Speed Precip Events Conditions
12:14 AM 39.0 °F 29.9 °F 36.0 °F 89% 29.87 in 6.0 mi West 17.3 mph 29.9 mph 0.01 in Rain Light Rain
12:23 AM 39.0 °F 30.6 °F 35.1 °F 86% 29.87 in 10.0 mi WSW 15.0 mph 24.2 mph 0.01 in Rain Light Rain
12:53 AM 37.9 °F 28.5 °F 33.1 °F 83% 29.83 in 10.0 mi SW 17.3 mph - 0.01 in   Overcast
1:53 AM 37.9 °F 28.9 °F 30.9 °F 76% 29.85 in 10.0 mi WSW 16.1 mph 24.2 mph N/A   Overcast
1:53 AM 37.0 °F 27.0 °F 28.0 °F 70% 29.84 in 10.0 mi WSW 18.4 mph 26.5 mph N/A   Overcast
2:53 AM 37.0 °F 27.7 °F 27.0 °F 67% 29.84 in 10.0 mi WSW 16.1 mph - N/A   Overcast
3:53 AM 34.0 °F 24.6 °F 26.1 °F 73% 29.85 in 10.0 mi WSW 13.8 mph - N/A   Clear
4:53 AM 30.9 °F 19.8 °F 24.1 °F 76% 29.88 in 10.0 mi WSW 16.1 mph - N/A   Clear
5:53 AM 30.9 °F 19.8 °F 23.0 °F 72% 29.89 in 10.0 mi WSW 16.1 mph - N/A   Clear
6:53 AM 30.0 °F 18.3 °F 23.0 °F 75% 29.94 in 10.0 mi WSW 17.3 mph - N/A   Clear
7:53 AM 30.0 °F 19.5 °F 21.9 °F 72% 29.96 in 10.0 mi WSW 13.8 mph - N/A   Clear
8:53 AM 33.1 °F 22.2 °F 21.9 °F 64% 29.96 in 10.0 mi WSW 17.3 mph - N/A   Clear
9:53 AM 35.1 °F 25.9 °F 21.9 °F 59% 29.97 in 10.0 mi West 13.8 mph 29.9 mph N/A   Clear
10:53 AM 37.0 °F 27.0 °F 21.0 °F 52% 29.97 in 10.0 mi West 18.4 mph 26.5 mph N/A   Partly Cloudy
11:53 AM 39.0 °F 29.6 °F 23.0 °F 53% 29.97 in 10.0 mi West 18.4 mph 26.5 mph N/A   Mostly Cloudy
12:53 PM 39.0 °F 28.8 °F 23.0 °F 53% 29.96 in 10.0 mi West 21.9 mph 33.4 mph N/A   Mostly Cloudy
1:53 PM 39.0 °F 29.0 °F 24.1 °F 55% 29.97 in 10.0 mi West 20.7 mph 29.9 mph N/A   Scattered Clouds
2:53 PM 39.9 °F 31.1 °F 23.0 °F 51% 29.97 in 10.0 mi WNW 17.3 mph 27.6 mph 0.00 in   Mostly Cloudy
3:53 PM 37.0 °F 27.7 °F 21.0 °F 52% 30.00 in 10.0 mi West 16.1 mph 26.5 mph 0.00 in   Partly Cloudy
4:53 PM 34.0 °F 23.8 °F 23.0 °F 64% 30.02 in 10.0 mi WSW 16.1 mph 24.2 mph N/A   Clear
5:53 PM 30.9 °F 21.7 °F 25.0 °F 79% 30.04 in 10.0 mi SW 11.5 mph - N/A   Clear
6:53 PM 30.9 °F 20.7 °F 25.0 °F 79% 30.04 in 10.0 mi WSW 13.8 mph - N/A   Clear
7:53 PM 30.0 °F 19.5 °F 24.1 °F 79% 30.06 in 10.0 mi SW 13.8 mph - N/A   Clear
8:53 PM 28.0 °F 17.5 °F 21.0 °F 75% 30.06 in 10.0 mi SW 12.7 mph - N/A   Clear
9:53 PM 26.1 °F 16.2 °F 19.0 °F 75% 30.06 in 10.0 mi SW 10.4 mph - N/A   Partly Cloudy
10:53 PM 25.0 °F 15.5 °F 18.0 °F 75% 30.06 in 10.0 mi SW 9.2 mph - N/A   Clear